[[{"header":{"parameterUnit":"m.s-1","parameterCategory":1,"la1":30.2991,"la2":30.254,"lo1":-89.0895,"lo2":-89.0444,"dx":0.0017,"dy":0.0017,"nx":28,"ny":28,"refTime":"2023-01-17T09:00:00:Z","depth":0,"parameterNumber":2,"parameterNumberName":"U-component_of_WINDS"},"data":[0,0,0,0,0,0,0,0,0,0,0,0,0,0,0,0,0,0,0,0,0,0,0,0,0,0,0,0,0,0,0,0,0,0,0,0,0,0,0,0,0,0,0,0,0,0,0,0,0,0,0,0,0,0,0,0,0,0,-0.2112,-0.2113,0,-0.2148,-0.2148,-0.2149,-0.2158,-0.2157,-0.2157,-0.2157,-0.2194,-0.2195,-0.2197,0,0,0,0,0,0,0,0,0,0,0,0,0,-0.2054,-0.2055,-0.2112,-0.2113,-0.2113,-0.2148,-0.2148,-0.2149,-0.2158,-0.2157,-0.2157,-0.2157,-0.2194,-0.2195,-0.2197,0,0,0,0,0,0,0,0,0,0,0,0,0,-0.2084,-0.2056,-0.2112,-0.2122,-0.2123,-0.2148,-0.2148,-0.2149,-0.2158,-0.2157,-0.2157,-0.2157,-0.2193,-0.2195,-0.2197,-0.2215,0,0,-0.2203,-0.2203,0,0,0,0,0,0,0,0,-0.2082,-0.2086,-0.212,-0.2121,-0.2122,-0.2148,-0.2142,-0.2171,-0.2158,-0.2144,-0.2157,-0.2156,-0.2179,-0.2182,-0.219,-0.2217,-0.2219,-0.2203,-0.2204,-0.2205,-0.2205,0,0,0,0,0,0,0,-0.208,-0.2084,-0.2126,-0.212,-0.2122,-0.2125,-0.2129,-0.2147,-0.2163,-0.2146,-0.2146,-0.215,-0.218,-0.2188,-0.2191,-0.2219,-0.2203,-0.2204,-0.2205,-0.2206,-0.2266,-0.2267,0,0,0,0,0,0,-0.2076,-0.2083,-0.2125,-0.2128,-0.2101,-0.2126,-0.2131,-0.214,-0.2163,-0.2166,-0.2151,-0.2151,-0.2185,-0.2188,-0.2192,-0.2217,-0.2205,-0.2206,-0.2207,-0.2266,-0.2267,-0.2267,0,0,0,0,0,0,-0.2075,-0.208,-0.2124,-0.2105,-0.2111,-0.2128,-0.2138,-0.2141,-0.2149,-0.2167,-0.217,-0.2156,-0.2185,-0.2189,-0.221,-0.2218,-0.2207,-0.2209,-0.2265,-0.2266,-0.2267,-0.2265,0,0,0,0,0,0,-0.2073,-0.2079,-0.2086,-0.2105,-0.2112,-0.214,-0.2139,-0.2142,-0.2152,-0.2152,-0.2173,-0.2176,-0.2185,-0.2207,-0.2212,-0.222,-0.221,-0.2265,-0.2266,-0.2267,-0.2265,-0.2266,-0.2267,0,0,0,0,0,-0.2071,-0.2083,-0.2086,-0.2091,-0.212,-0.2141,-0.2145,-0.2155,-0.2153,-0.216,-0.2172,-0.2175,-0.2216,-0.2209,-0.2215,-0.2224,-0.2264,-0.2265,-0.2267,-0.2264,-0.2266,-0.2267,0,0,0,0,0,0,-0.2064,-0.2086,-0.2089,-0.2108,-0.2123,-0.2142,-0.2151,-0.2156,-0.2171,-0.2171,-0.2183,-0.2188,-0.2208,-0.2218,-0.221,-0.2244,-0.2241,-0.2243,-0.2237,-0.2238,-0.224,-0.2237,-0.2212,0,0,0,0,0,-0.2064,-0.2079,-0.2098,-0.2113,-0.212,-0.2134,-0.2144,-0.215,-0.2166,-0.2172,-0.2186,-0.2201,-0.2218,-0.2229,-0.2245,-0.2266,-0.2272,-0.2275,-0.2277,-0.2277,-0.2279,-0.2294,-0.2296,-0.2271,-0.2271,-0.2271,0,0,-0.2066,-0.208,-0.2088,-0.2112,-0.2123,-0.2139,-0.2139,-0.2155,-0.2167,-0.2175,-0.2195,-0.2206,-0.2224,-0.2246,-0.2256,-0.2255,-0.2288,-0.2279,-0.2279,-0.2281,-0.2295,-0.2298,-0.23,-0.2272,-0.2272,-0.2271,0,0,-0.2076,-0.2088,-0.2102,-0.2115,-0.2133,-0.2143,-0.2147,-0.2167,-0.2174,-0.2195,-0.2202,-0.2217,-0.2245,-0.2258,-0.2269,-0.2288,-0.2292,-0.2293,-0.2298,-0.2313,-0.2315,-0.2316,-0.2325,-0.2327,-0.2294,-0.2294,-0.2294,0,-0.2076,-0.2099,-0.2109,-0.2126,-0.2137,-0.2145,-0.2161,-0.2172,-0.2195,-0.2203,-0.2202,-0.2239,-0.2251,-0.2278,-0.2282,-0.229,-0.2296,-0.229,-0.2313,-0.2315,-0.2317,-0.2325,-0.2328,-0.2294,-0.2294,-0.2294,-0.2294,0,-0.2098,-0.2114,-0.2124,-0.2146,-0.2159,-0.2174,-0.2189,-0.22,-0.2207,-0.2217,-0.224,-0.2256,-0.2277,-0.2284,-0.2289,-0.2311,-0.231,-0.2311,-0.2307,-0.2319,-0.2328,-0.2331,-0.2295,-0.2295,-0.2295,-0.2294,0,0,-0.2104,-0.2133,-0.2137,-0.2148,-0.217,-0.2184,-0.2201,-0.2221,-0.2232,-0.2248,-0.2264,-0.2289,-0.229,-0.2302,-0.231,-0.2322,-0.2339,-0.2322,-0.2322,-0.2326,-0.2366,-0.2367,-0.237,-0.2342,-0.2342,-0.2343,-0.2365,0,-0.2118,-0.2148,-0.216,-0.2185,-0.2202,-0.2211,-0.2226,-0.2242,-0.2253,-0.227,-0.2282,-0.23,-0.23,-0.2308,-0.232,-0.2334,-0.2347,-0.2332,-0.2358,-0.2359,-0.2354,-0.2374,-0.2373,-0.2394,-0.2368,-0.2369,-0.2369,0,-0.2138,-0.2155,-0.2182,-0.2205,-0.2212,-0.2225,-0.2247,-0.2262,-0.2281,-0.2288,-0.2303,-0.2311,-0.2331,-0.2327,-0.2356,-0.2346,-0.2358,-0.2366,-0.2367,-0.2371,-0.2365,-0.2379,-0.24,-0.2404,-0.2374,-0.2374,-0.2373,0,-0.2141,-0.2171,-0.2192,-0.2201,-0.2227,-0.2237,-0.2248,-0.2267,-0.228,-0.2299,-0.2307,-0.2328,-0.234,-0.2357,-0.2371,-0.2366,-0.24,-0.2396,-0.2408,-0.2408,-0.2415,-0.2414,-0.2439,-0.242,-0.242,-0.242,-0.242,0,-0.2156,-0.2173,-0.2194,-0.2207,-0.2227,-0.224,-0.226,-0.2272,-0.2289,-0.2306,-0.2315,-0.2331,-0.2348,-0.2366,-0.2378,-0.2402,-0.2406,-0.2414,-0.2417,-0.2414,-0.2413,-0.2422,-0.2421,-0.2421,-0.2421,-0.2421,-0.2421,0,-0.2163,-0.2177,-0.2201,-0.2224,-0.2231,-0.2244,-0.2265,-0.2279,-0.2291,-0.2313,-0.2318,-0.2338,-0.2361,-0.2376,-0.2405,-0.2413,-0.2439,-0.2441,-0.2432,-0.2434,-0.2446,-0.2445,-0.2479,-0.2485,-0.246,-0.2461,-0.2461,0,-0.2171,-0.2185,-0.221,-0.2222,-0.2233,-0.2252,-0.2265,-0.228,-0.2294,-0.2318,-0.233,-0.2353,-0.2372,-0.2408,-0.2426,-0.2449,-0.2452,-0.2462,-0.2456,-0.2453,-0.2454,-0.2454,-0.2456,-0.2463,-0.2464,-0.2464,-0.2464,0,-0.2186,-0.2193,-0.2211,-0.2233,-0.2249,-0.2266,-0.2284,-0.2294,-0.2312,-0.2327,-0.2351,-0.2366,-0.2396,-0.242,-0.2445,-0.2458,-0.2465,-0.2466,-0.247,-0.2467,-0.2463,-0.2467,-0.2437,-0.2465,-0.2465,-0.2465,-0.2465,-0.2465,-0.2195,-0.2208,-0.2228,-0.2249,-0.2265,-0.2282,-0.2297,-0.2312,-0.2331,-0.2357,-0.2365,-0.2389,-0.2411,-0.2446,-0.246,-0.2481,-0.248,-0.2486,-0.2487,-0.2489,-0.249,-0.2459,-0.2485,-0.2485,-0.2485,-0.2485,-0.2485,0,-0.2211,-0.2225,-0.2244,-0.227,-0.2287,-0.2292,-0.2313,-0.2327,-0.2348,-0.2368,-0.2387,-0.2416,-0.2439,-0.246,-0.2485,-0.2498,-0.2502,-0.2504,-0.2504,-0.2507,-0.2488,-0.2482,-0.2501,-0.2501,-0.2501,-0.2501,-0.2501,-0.2501,-0.2221,-0.2244,-0.2255,-0.2287,-0.2301,-0.2325,-0.2337,-0.2354,-0.237,-0.2401,-0.2421,-0.2434,-0.2455,-0.2482,-0.2505,-0.2511,-0.252,-0.2522,-0.2528,-0.251,-0.2508,-0.2507,-0.2502,-0.2524,-0.2524,-0.2546,-0.2547,-0.2547]},{"header":{"parameterUnit":"m.s-1","parameterCategory":1,"la1":30.2991,"la2":30.254,"lo1":-89.0895,"lo2":-89.0444,"dx":0.0017,"dy":0.0017,"nx":28,"ny":28,"refTime":"2023-01-17T09:00:00:Z","depth":0,"parameterNumber":3,"parameterNumberName":"V-component_of_WINDS"},"data":[0,0,0,0,0,0,0,0,0,0,0,0,0,0,0,0,0,0,0,0,0,0,0,0,0,0,0,0,0,0,0,0,0,0,0,0,0,0,0,0,0,0,0,0,0,0,0,0,0,0,0,0,0,0,0,0,0,0,1.7829,1.7829,0,1.7869,1.787,1.787,1.788,1.788,1.788,1.788,1.7921,1.7923,1.7924,0,0,0,0,0,0,0,0,0,0,0,0,0,1.7761,1.7762,1.7829,1.7829,1.783,1.7869,1.787,1.787,1.788,1.788,1.788,1.788,1.7921,1.7923,1.7924,0,0,0,0,0,0,0,0,0,0,0,0,0,1.7795,1.7763,1.7829,1.784,1.7841,1.7869,1.787,1.787,1.7881,1.788,1.788,1.7879,1.792,1.7922,1.7924,1.7945,0,0,1.7931,1.7932,0,0,0,0,0,0,0,0,1.7793,1.7797,1.7837,1.7839,1.784,1.7869,1.7861,1.7895,1.7881,1.7866,1.788,1.7879,1.7904,1.7908,1.7916,1.7947,1.7949,1.7931,1.7932,1.7933,1.7934,0,0,0,0,0,0,0,1.7791,1.7796,1.7845,1.7838,1.784,1.7843,1.7847,1.7868,1.7887,1.7867,1.7868,1.7872,1.7905,1.7914,1.7917,1.7949,1.7931,1.7933,1.7934,1.7935,1.8,1.8,0,0,0,0,0,0,1.7786,1.7794,1.7844,1.7846,1.7815,1.7844,1.7849,1.786,1.7886,1.789,1.7873,1.7873,1.7911,1.7915,1.7919,1.7946,1.7933,1.7935,1.7936,1.7999,1.8,1.8,0,0,0,0,0,0,1.7785,1.7791,1.7842,1.782,1.7827,1.7846,1.7858,1.7862,1.7871,1.7891,1.7894,1.7878,1.7911,1.7916,1.7939,1.7947,1.7936,1.7938,1.7999,1.7999,1.8,1.7998,0,0,0,0,0,0,1.7783,1.779,1.7798,1.782,1.7828,1.7861,1.7859,1.7863,1.7874,1.7874,1.7897,1.7901,1.7911,1.7935,1.7941,1.795,1.7939,1.7998,1.7999,1.8,1.7998,1.7999,1.8,0,0,0,0,0,1.778,1.7795,1.7798,1.7804,1.7838,1.7861,1.7866,1.7877,1.7875,1.7883,1.7896,1.79,1.7945,1.7938,1.7944,1.7953,1.7997,1.7999,1.8,1.7997,1.7999,1.8,0,0,0,0,0,0,1.7773,1.7799,1.7802,1.7824,1.7841,1.7863,1.7874,1.7878,1.7895,1.7895,1.7909,1.7914,1.7936,1.7947,1.7938,1.7975,1.7971,1.7974,1.7967,1.7969,1.797,1.7968,1.7941,0,0,0,0,0,1.7775,1.7791,1.7812,1.783,1.7838,1.7854,1.7865,1.7872,1.789,1.7897,1.7911,1.7928,1.7946,1.7958,1.7976,1.7999,1.8005,1.8009,1.801,1.801,1.8013,1.8027,1.803,1.8004,1.8004,1.8004,0,0,1.7777,1.7793,1.7802,1.7829,1.7843,1.786,1.786,1.7878,1.7891,1.7899,1.7922,1.7933,1.7953,1.7976,1.7987,1.7986,1.8021,1.8012,1.8012,1.8014,1.8029,1.8031,1.8033,1.8005,1.8005,1.8005,0,0,1.7791,1.7804,1.7821,1.7835,1.7855,1.7866,1.787,1.7891,1.7899,1.7922,1.7929,1.7945,1.7975,1.7989,1.8001,1.802,1.8025,1.8025,1.8032,1.8046,1.8048,1.805,1.8058,1.8061,1.8027,1.8027,1.8027,0,1.7792,1.7818,1.7829,1.7847,1.786,1.7867,1.7885,1.7898,1.7923,1.7931,1.7929,1.7969,1.7982,1.801,1.8015,1.8023,1.8029,1.8024,1.8047,1.8049,1.8051,1.8059,1.8062,1.8027,1.8027,1.8027,1.8027,0,1.7819,1.7837,1.7848,1.7872,1.7885,1.7903,1.7918,1.793,1.7936,1.7947,1.7971,1.7988,1.8009,1.8016,1.8022,1.8045,1.8044,1.8044,1.8041,1.8053,1.8061,1.8064,1.8028,1.8027,1.8027,1.8027,0,0,1.783,1.786,1.7864,1.7876,1.7899,1.7914,1.7932,1.7953,1.7964,1.7981,1.7998,1.8023,1.8024,1.8037,1.8045,1.8056,1.8073,1.8056,1.8056,1.806,1.81,1.8101,1.8105,1.8075,1.8076,1.8077,1.8099,0,1.7848,1.7881,1.7892,1.792,1.7937,1.7945,1.7962,1.7978,1.7989,1.8005,1.8017,1.8036,1.8035,1.8043,1.8055,1.8068,1.8081,1.8067,1.8092,1.8093,1.8089,1.8109,1.8109,1.813,1.8102,1.8103,1.8103,0,1.7873,1.7891,1.792,1.7942,1.795,1.7965,1.7986,1.8001,1.802,1.8027,1.8041,1.8048,1.8069,1.8063,1.8092,1.8082,1.8093,1.8101,1.8102,1.8106,1.81,1.8115,1.8137,1.814,1.8108,1.8108,1.8107,0,1.788,1.7911,1.7933,1.7943,1.7969,1.7979,1.799,1.8008,1.8021,1.8039,1.8048,1.8068,1.8079,1.8095,1.8107,1.8102,1.8135,1.8131,1.8143,1.8143,1.8151,1.8151,1.8177,1.8155,1.8155,1.8155,1.8155,0,1.79,1.7918,1.7937,1.7951,1.7972,1.7984,1.8005,1.8017,1.8033,1.805,1.8057,1.8073,1.8088,1.8105,1.8115,1.8138,1.8143,1.815,1.8153,1.815,1.815,1.8159,1.8158,1.8156,1.8156,1.8155,1.8155,0,1.7911,1.7925,1.795,1.7972,1.7978,1.7993,1.8013,1.8027,1.8038,1.8059,1.8064,1.8082,1.8103,1.8117,1.8144,1.8151,1.8176,1.8178,1.817,1.8172,1.8184,1.8183,1.8218,1.8224,1.8197,1.8197,1.8198,0,1.7924,1.7938,1.7962,1.7974,1.7985,1.8004,1.8017,1.803,1.8043,1.8066,1.8078,1.8099,1.8118,1.8151,1.8167,1.8188,1.8191,1.8201,1.8194,1.8192,1.8193,1.8193,1.8195,1.8203,1.8203,1.8204,1.8204,0,1.7945,1.7951,1.7969,1.799,1.8006,1.8023,1.804,1.8049,1.8065,1.8079,1.8101,1.8116,1.8143,1.8166,1.8188,1.82,1.8205,1.8206,1.821,1.8209,1.8205,1.8209,1.8176,1.8205,1.8205,1.8205,1.8205,1.8205,1.7958,1.7972,1.7992,1.8012,1.8026,1.8042,1.8057,1.807,1.8089,1.8113,1.8119,1.8142,1.8162,1.8192,1.8205,1.8224,1.8222,1.8228,1.823,1.8232,1.8233,1.82,1.8227,1.8227,1.8227,1.8227,1.8227,0,1.7981,1.7994,1.8013,1.8037,1.8053,1.8056,1.8075,1.8089,1.811,1.8127,1.8145,1.8171,1.8193,1.821,1.8232,1.8244,1.8247,1.825,1.825,1.8253,1.8232,1.8227,1.8247,1.8247,1.8247,1.8247,1.8247,1.8247,1.7995,1.8019,1.8028,1.8059,1.8072,1.8095,1.8106,1.8121,1.8135,1.8164,1.8182,1.8193,1.8211,1.8235,1.8255,1.8259,1.8268,1.8271,1.8276,1.8256,1.8254,1.8252,1.8247,1.8272,1.8272,1.8296,1.8296,1.8296]}]]